{"data":{"norad_id":59860,"epoch":"2026-05-25T04:11:17.862720Z","epoch_age_seconds":57033,"freshness":"FRESH","line1":"1 59860U 24098C   26145.17451230  .00001535  00000+0  65289-4 0  9999","line2":"2 59860  43.0004 206.0418 0001824 275.7630  84.3014 15.27578808113542","mean_motion":15.27578808,"eccentricity":0.0001824,"inclination_deg":43.0004,"raan_deg":206.0418,"arg_perigee_deg":275.763,"mean_anomaly_deg":84.3014,"bstar":6.5289e-5,"rev_number":11354,"period_min":94.266822271863,"perigee_km":481.80118432384,"apogee_km":484.30414631375,"semimajor_km":6861.1896653188,"source":"CELESTRAK","updated_at":"2026-05-25T13:38:19.090753Z"}}